Terminal Aerodrome Forecast
Issued by NWS Albany, NY

Home | Current Version | Previous Version | Text Only | Print | Product List | Glossary On
Versions: 1 2 3 4 5 6 7 8 9 10 11 12 13 14 15 16 17
000
FTUS41 KALY 261137
TAFALB
TAF
KALB 261137Z 2612/2712 VRB03KT P6SM SCT100
     FM261600 17010KT P6SM SCT050 BKN250
     FM262200 17005KT P6SM VCSH SCT040 BKN080
     FM270300 VRB03KT P6SM VCSH BKN045=

USA.gov is the U.S. government's official web portal to all federal, state and local government web resources and services.